Location: Philomena
(55.1756°N, 111.6233°W)
Time: 23:52:56
(UTC+00:00)

BUGSAT 1 - Visible Passes

Search period start: 01 December 2023 00:00
Search period end: 11 December 2023 00:00
Orbit: 537 x 588 km, 98.2° (Epoch: 30 November)

Date Brightness Start Highest point End Pass type
(mag) Time Alt. Az. Time Alt. Az. Time Alt. Az.
01 Dec ? 00:52:56 16° NNE 00:52:56 16° NNE 00:54:19 10° N visible
01 Dec ? 02:28:55 17° NNW 02:28:55 17° NNW 02:29:56 10° NNW visible
01 Dec ? 13:56:13 10° E 13:56:28 10° E 13:56:43 10° E visible
02 Dec ? 00:52:36 16° NNE 00:52:36 16° NNE 00:53:52 10° N visible
02 Dec ? 02:28:35 16° NNW 02:28:35 16° NNW 02:29:28 10° NNW visible
03 Dec ? 00:52:15 15° NNE 00:52:15 15° NNE 00:53:23 10° N visible
03 Dec ? 02:28:13 15° NNW 02:28:13 15° NNW 02:29:01 10° NNW visible
04 Dec ? 00:51:52 15° NNE 00:51:52 15° NNE 00:52:53 10° N visible
04 Dec ? 02:27:50 15° NNW 02:27:50 15° NNW 02:28:32 10° NNW visible
05 Dec ? 00:51:27 14° NNE 00:51:27 14° NNE 00:52:22 10° N visible
05 Dec ? 02:27:26 14° NNW 02:27:26 14° NNW 02:28:02 10° NNW visible
06 Dec ? 00:51:02 14° NNE 00:51:02 14° NNE 00:51:51 10° NNE visible
06 Dec ? 02:27:00 13° NNW 02:27:00 13° NNW 02:27:31 10° NNW visible
07 Dec ? 00:50:34 13° NNE 00:50:34 13° NNE 00:51:18 10° NNE visible
07 Dec ? 02:26:32 13° NNW 02:26:32 13° NNW 02:27:00 10° NNW visible
08 Dec ? 00:50:06 13° NNE 00:50:06 13° NNE 00:50:45 10° NNE visible
08 Dec ? 02:26:04 13° NNW 02:26:04 13° NNW 02:26:28 10° NNW visible
09 Dec ? 00:49:35 12° NNE 00:49:35 12° NNE 00:50:10 10° NNE visible
09 Dec ? 02:25:33 12° NNW 02:25:33 12° NNW 02:25:54 10° NNW visible
10 Dec ? 00:49:04 12° NNE 00:49:04 12° NNE 00:49:35 10° NNE visible
10 Dec ? 02:25:01 12° NNW 02:25:01 12° NNW 02:25:20 10° NNW visible
